CW5324 Weather Reports


time (UTC)temp
F
wind
direction
speed
knots
gust
knots
rain 1hr
in
rain 24hr
in
rain mn
in
humidity
%
barometer
mb
20260507033516 54 0.0 0.0 0.00 0.22 0.22 85
20260507032520 55 0.0 0.0 0.00 0.22 0.22 85
20260507031520 55 0.0 0.0 0.01 0.22 0.22 85
20260507030520 55 0.0 0.0 0.01 0.22 0.22 84
20260507025520 55 0.0 0.0 0.01 0.22 0.22 84
20260507024520 55 0.0 0.0 0.01 0.22 0.22 85
20260507023535 55 0.0 0.0 0.01 0.22 0.22 86
20260507022521 55 0.0 0.0 0.01 0.22 0.22 89
20260507021520 56 0.0 0.0 0.00 0.21 0.21 91
20260507020520 58 0.0 0.0 0.00 0.21 0.21 93
20260507015520 59 0.0 0.0 0.00 0.21 0.21 94
20260507014518 60 0.0 0.0 0.00 0.21 0.21 94
20260507013540 60 0.0 0.0 0.01 0.21 0.21 95
20260507012516 61 0.0 0.0 0.02 0.21 0.21 95
20260507011520 61 0.0 0.0 0.02 0.21 0.21 95
20260507010520 62 0.0 0.0 0.02 0.21 0.21 96
20260507005520 62 0.0 0.0 0.02 0.21 0.21 95
20260507004520 62 0.0 0.0 0.02 0.21 0.21 95
20260507003520 62 0.0 0.0 0.01 0.20 0.20 95
20260507002520 62 0.0 0.0 0.00 0.19 0.19 95
20260507001516 62 0.0 0.0 0.00 0.19 0.19 95
20260507000520 62 0.0 0.0 0.00 0.19 0.19 95
20260506235520 62 0.0 0.0 0.00 0.19 0.19 95
20260506234540 62 0.0 0.0 0.00 0.19 0.19 95
20260506233520 62 0.0 0.0 0.00 0.19 0.19 95
20260506232520 62 0.0 0.0 0.00 0.19 0.19 95
20260506231516 62 0.0 0.0 0.00 0.19 0.19 94
20260506230515 62 0.0 0.0 0.00 0.19 0.19 94
20260506225520 62 0.0 0.0 0.01 0.19 0.19 94
20260506224520 62 0.0 0.0 0.03 0.19 0.19 94
20260506223520 62 0.0 0.0 0.04 0.19 0.19 94
20260506222640 62 0.0 0.0 0.04 0.19 0.19 94
20260506221600 62 0.0 0.0 0.04 0.19 0.19 94
20260506220516 62 0.0 0.0 0.04 0.19 0.19 94
20260506215516 62 0.0 0.0 0.04 0.18 0.18 93
20260506214520 62 0.0 0.0 0.03 0.16 0.16 93
20260506213520 62 0.0 0.0 0.03 0.15 0.15 93
20260506212520 62 0.0 0.0 0.03 0.15 0.15 93
20260506211520 62 0.0 0.0 0.05 0.15 0.15 93
20260506210520 62 0.0 0.0 0.05 0.15 0.15 93
20260506205515 62 0.0 0.0 0.04 0.14 0.14 93
20260506204520 62 0.0 0.0 0.04 0.13 0.13 92
20260506203541 62 0.0 0.0 0.03 0.12 0.12 92
20260506202520 62 0.0 0.0 0.03 0.12 0.12 92
20260506201520 62 0.0 0.0 0.01 0.10 0.10 92
20260506200538 62 0.0 0.0 0.03 0.10 0.10 91
20260506195520 62 0.0 0.0 0.03 0.10 0.10 91
20260506194515 62 0.0 0.0 0.03 0.09 0.09 91
20260506193520 62 0.0 0.0 0.03 0.09 0.09 90
20260506192601 63 0.0 0.0 0.04 0.09 0.09 90
20260506191520 63 0.0 0.0 0.04 0.09 0.09 89
20260506190520 63 0.0 0.0 0.02 0.07 0.07 89
20260506185520 63 0.0 0.0 0.03 0.07 0.07 88
20260506184520 64 0.0 0.0 0.03 0.06 0.06 87
20260506183515 64 0.0 0.0 0.03 0.06 0.06 86
20260506182520 65 0.0 0.0 0.04 0.05 0.05 86
20260506181520 65 0.0 0.0 0.05 0.05 0.05 85
20260506180520 65 0.0 0.0 0.05 0.05 0.05 84
20260506175521 66 0.0 0.0 0.04 0.04 0.04 82
20260506174520 66 0.0 0.0 0.03 0.03 0.03 81
20260506173515 67 0.0 0.0 0.03 0.03 0.03 78
20260506172515 68 0.0 0.0 0.01 0.01 0.01 75
20260506171520 69 0.0 0.0 0.00 0.00 0.00 74
20260506170520 69 0.0 0.0 0.00 0.00 0.00 72
20260506165520 69 0.0 0.0 0.00 0.00 0.00 69
20260506164520 70 0.0 0.0 0.00 0.00 0.00 69
20260506163521 70 0.0 0.0 0.00 0.00 0.00 67
20260506162535 70 0.0 0.0 0.00 0.00 0.00 67
20260506161515 70 0.0 0.0 0.00 0.00 0.00 68
20260506160520 69 0.0 0.0 0.00 0.00 0.00 69
20260506155600 69 0.0 0.0 0.00 0.00 0.00 70
20260506154520 68 0.0 0.0 0.00 0.00 0.00 70
20260506153518 68 0.0 0.0 0.00 0.00 0.00 70
20260506152523 68 0.0 0.0 0.00 0.00 0.00 71
20260506151522 68 0.0 0.0 0.00 0.00 0.00 72
20260506150522 67 0.0 0.0 0.00 0.00 0.00 73
20260506145523 67 0.0 0.0 0.00 0.00 0.00 73
20260506144522 67 0.0 0.0 0.00 0.00 0.00 73
20260506143522 67 0.0 0.0 0.00 0.00 0.00 73
20260506142516 67 0.0 0.0 0.00 0.00 0.00 73
20260506141522 67 0.0 0.0 0.00 0.00 0.00 73
20260506140542 67 0.0 0.0 0.00 0.00 0.00 73
20260506135522 67 0.0 0.0 0.00 0.00 0.00 74
20260506134522 66 0.0 0.0 0.00 0.00 0.00 75
20260506133522 65 0.0 0.0 0.00 0.00 0.00 75
20260506132537 65 0.0 0.0 0.00 0.00 0.00 75
20260506131517 65 0.0 0.0 0.00 0.00 0.00 76
20260506130522 65 0.0 0.0 0.00 0.00 0.00 77
20260506125522 64 0.0 0.0 0.00 0.00 0.00 77
20260506124521 64 0.0 0.0 0.00 0.00 0.00 78
20260506123522 64 0.0 0.0 0.00 0.00 0.00 79
20260506122522 63 0.0 0.0 0.00 0.00 0.00 80
20260506121517 63 0.0 0.0 0.00 0.00 0.00 80
20260506120520 63 0.0 0.0 0.00 0.00 0.00 80
20260506115642 63 0.0 0.0 0.00 0.00 0.00 80
20260506114522 62 0.0 0.0 0.00 0.00 0.00 81
20260506113603 62 0.0 0.0 0.00 0.00 0.00 81
20260506112520 62 0.0 0.0 0.00 0.00 0.00 81
20260506111522 62 0.0 0.0 0.00 0.00 0.00 81
20260506110517 62 0.0 0.0 0.00 0.00 0.00 82
20260506105522 61 0.0 0.0 0.00 0.00 0.00 82
20260506104522 61 0.0 0.0 0.00 0.00 0.00 82
20260506103522 61 0.0 0.0 0.00 0.00 0.00 82
20260506102542 61 0.0 0.0 0.00 0.00 0.00 82
20260506101522 61 0.0 0.0 0.00 0.00 0.00 82
20260506100522 61 0.0 0.0 0.00 0.00 0.00 81
20260506095517 61 0.0 0.0 0.00 0.00 0.00 81
20260506094542 61 0.0 0.0 0.00 0.00 0.00 81
20260506093521 61 0.0 0.0 0.00 0.00 0.00 80
20260506092521 61 0.0 0.0 0.00 0.00 0.00 79
20260506091604 61 0.0 0.0 0.00 0.00 0.00 79
20260506090522 62 0.0 0.0 0.00 0.00 0.00 79
20260506085517 62 0.0 0.0 0.00 0.00 0.00 78
20260506084516 62 0.0 0.0 0.00 0.00 0.00 78
20260506083602 62 0.0 0.0 0.00 0.00 0.00 78
20260506082523 62 0.0 0.0 0.00 0.00 0.00 77
20260506081522 62 0.0 0.0 0.00 0.00 0.00 77
20260506080522 62 0.0 0.0 0.00 0.00 0.00 77
20260506072522 63 0.0 0.0 0.00 0.00 0.00 74
20260506071522 63 0.0 0.0 0.00 0.00 0.00 73
20260506070522 64 0.0 0.0 0.00 0.00 0.00 72
20260506061523 65 0.0 0.0 0.00 0.00 0.00 68
20260506060522 65 0.0 0.0 0.00 0.00 0.00 67
20260506050522 65 0.0 0.0 0.00 0.00 0.00 65
20260506044602 65 0.0 0.0 0.00 0.00 0.00 65
20260506043522 66 0.0 0.0 0.00 0.00 0.00 64
20260506042522 66 0.0 0.0 0.00 0.00 0.00 64
20260506041517 66 0.0 0.0 0.00 0.00 0.00 63
20260506040522 66 0.0 0.0 0.00 0.00 0.00 63
20260506035521 66 0.0 0.0 0.00 0.00 0.00 63
20260506034521 66 0.0 0.0 0.00 0.00 0.00 62